Tracking 30101 objects as of 14-Dec-2024
HD Live streaming from Space Station
objects crossing your sky now

DIRECTV 1R

Track DIRECTV 1R now!
DIRECTV 1R is classified as:


NORAD ID: 25937
Int'l Code: 1999-056A
Perigee: 36,138.0 km
Apogee: 36,193.6 km
Inclination: 9.5 °
Period: 1,455.1 minutes
Semi major axis: 42536 km
RCS: 3.9811 m2 (large)
Launch date: October 10, 1999
Source: United States (US)
Launch site: SEA LAUNCH (SEAL)

First commercial launch by Sea Launch consortium (American, Russian, Ukrainian companies); 16 Ku-band; video channels directly to home-based dishes; anticipated 50 million homes in North America.
Your satellite tracking list
Your tracking list is empty




NASA's NSSDC Master Catalog

Two Line Element Set (TLE):
1 25937U 99056A   24348.68683073 -.00000107  00000-0  00000+0 0  9995
2 25937   9.4675  53.3770 0006534 215.8356 166.0012  0.98959175 91742
Source of the keplerian elements: AFSPC